Time,TemperatureF,DewpointF,PressureIn,WindDirection,WindDirectionDegrees,WindSpeedMPH,WindSpeedGustMPH,Humidity,HourlyPrecipIn,Conditions,Clouds,dailyrainin,SoftwareType,DateUTC
2013-03-03 00:02:00,32.0,27.0,30.17,NW,314,4.0,-999.0,83,-99.99,,,0.00,,2013-03-03 06:02:00,
2013-03-03 00:11:00,32.0,27.0,30.17,NW,314,4.0,-999.0,83,-99.99,,,0.00,,2013-03-03 06:11:00,
2013-03-03 00:21:00,32.0,27.0,30.18,WNW,299,4.0,-999.0,83,-99.99,,,0.00,,2013-03-03 06:21:00,
2013-03-03 00:32:00,32.0,27.0,30.18,WNW,297,6.0,-999.0,82,-99.99,,,0.00,,2013-03-03 06:32:00,
2013-03-03 00:42:00,32.0,27.0,30.18,WNW,297,6.0,-999.0,82,-99.99,,,0.00,,2013-03-03 06:42:00,
2013-03-03 00:52:00,32.0,27.0,30.18,WNW,289,6.0,-999.0,81,-99.99,,,0.00,,2013-03-03 06:52:00,
2013-03-03 01:01:00,32.0,27.0,30.18,North,350,6.0,-999.0,80,-99.99,,,0.00,,2013-03-03 07:01:00,
2013-03-03 01:11:00,32.0,27.0,30.18,North,350,6.0,-999.0,80,-99.99,,,0.00,,2013-03-03 07:11:00,
2013-03-03 01:21:00,32.0,27.0,30.18,North,350,6.0,-999.0,80,-99.99,,,0.00,,2013-03-03 07:21:00,
2013-03-03 01:31:00,32.0,26.0,30.18,NW,305,6.0,-999.0,79,-99.99,,,0.00,,2013-03-03 07:31:00,
2013-03-03 01:42:00,32.0,26.0,30.18,NW,305,6.0,-999.0,79,-99.99,,,0.00,,2013-03-03 07:42:00,
2013-03-03 01:52:00,32.0,26.0,30.18,WNW,301,5.0,-999.0,79,-99.99,,,0.00,,2013-03-03 07:52:00,
2013-03-03 02:01:00,32.0,26.0,30.18,NW,309,6.0,-999.0,79,-99.99,,,0.00,,2013-03-03 08:01:00,
2013-03-03 02:11:00,32.0,26.0,30.18,NW,309,6.0,-999.0,79,-99.99,,,0.00,,2013-03-03 08:11:00,
2013-03-03 02:21:00,32.0,26.0,30.17,NW,313,6.0,-999.0,79,-99.99,,,0.00,,2013-03-03 08:21:00,
2013-03-03 02:31:00,32.0,26.0,30.16,NW,317,6.0,-999.0,79,-99.99,,,0.00,,2013-03-03 08:31:00,
2013-03-03 02:41:00,32.0,26.0,30.16,NW,317,6.0,-999.0,79,-99.99,,,0.00,,2013-03-03 08:41:00,
2013-03-03 02:53:00,32.0,26.0,30.16,North,354,6.0,-999.0,78,-99.99,,,0.00,,2013-03-03 08:53:00,
2013-03-03 03:01:00,32.0,26.0,30.16,NNW,343,4.0,-999.0,79,-99.99,,,0.00,,2013-03-03 09:01:00,
2013-03-03 03:11:00,32.0,26.0,30.16,NNW,343,4.0,-999.0,79,-99.99,,,0.00,,2013-03-03 09:11:00,
2013-03-03 03:21:00,31.0,25.0,30.16,NNW,333,5.0,-999.0,78,-99.99,,,0.00,,2013-03-03 09:21:00,
2013-03-03 03:32:00,31.0,25.0,30.16,NW,310,6.0,-999.0,79,-99.99,,,0.00,,2013-03-03 09:32:00,
2013-03-03 03:41:00,31.0,25.0,30.16,NW,310,6.0,-999.0,79,-99.99,,,0.00,,2013-03-03 09:41:00,
2013-03-03 03:51:00,31.0,25.0,30.16,NW,318,6.0,-999.0,79,-99.99,,,0.00,,2013-03-03 09:51:00,
2013-03-03 04:01:00,31.0,25.0,30.16,NNW,330,6.0,-999.0,79,-99.99,,,0.00,,2013-03-03 10:01:00,
2013-03-03 04:11:00,31.0,25.0,30.16,NNW,330,6.0,-999.0,79,-99.99,,,0.00,,2013-03-03 10:11:00,
2013-03-03 04:21:00,31.0,25.0,30.16,NW,315,4.0,-999.0,79,-99.99,,,0.00,,2013-03-03 10:21:00,
2013-03-03 04:32:00,31.0,25.0,30.16,NW,307,5.0,-999.0,79,-99.99,,,0.00,,2013-03-03 10:32:00,
2013-03-03 04:42:00,31.0,25.0,30.16,NW,307,5.0,-999.0,79,-99.99,,,0.00,,2013-03-03 10:42:00,
2013-03-03 04:52:00,31.0,25.0,30.16,NW,305,4.0,-999.0,79,-99.99,,,0.00,,2013-03-03 10:52:00,
2013-03-03 05:01:00,31.0,25.0,30.16,NW,314,6.0,-999.0,79,-99.99,,,0.00,,2013-03-03 11:01:00,
2013-03-03 05:11:00,31.0,25.0,30.16,NW,314,6.0,-999.0,79,-99.99,,,0.00,,2013-03-03 11:11:00,
2013-03-03 05:21:00,31.0,25.0,30.16,NW,318,6.0,-999.0,79,-99.99,,,0.00,,2013-03-03 11:21:00,
2013-03-03 05:32:00,31.0,26.0,30.16,NNW,335,5.0,-999.0,80,-99.99,,,0.00,,2013-03-03 11:32:00,
2013-03-03 05:42:00,31.0,26.0,30.16,NNW,335,5.0,-999.0,80,-99.99,,,0.00,,2013-03-03 11:42:00,
2013-03-03 05:52:00,30.0,25.0,30.17,NW,318,5.0,-999.0,80,-99.99,,,0.00,,2013-03-03 11:52:00,
2013-03-03 06:01:00,30.0,25.0,30.17,WNW,300,5.0,-999.0,80,-99.99,,,0.00,,2013-03-03 12:01:00,
2013-03-03 06:11:00,30.0,25.0,30.17,WNW,300,5.0,-999.0,80,-99.99,,,0.00,,2013-03-03 12:11:00,
2013-03-03 06:21:00,29.0,24.0,30.17,NNW,334,4.0,-999.0,81,-99.99,,,0.00,,2013-03-03 12:21:00,
2013-03-03 06:32:00,29.0,24.0,30.17,NNW,334,4.0,-999.0,81,-99.99,,,0.00,,2013-03-03 12:32:00,
2013-03-03 06:43:00,29.0,24.0,30.17,NNW,334,4.0,-999.0,81,-99.99,,,0.00,,2013-03-03 12:43:00,
2013-03-03 06:53:00,29.0,24.0,30.17,NW,314,2.0,-999.0,82,-99.99,,,0.00,,2013-03-03 12:53:00,
2013-03-03 07:01:00,29.0,24.0,30.18,WNW,295,2.0,-999.0,81,-99.99,,,0.00,,2013-03-03 13:01:00,
2013-03-03 07:11:00,29.0,24.0,30.18,WNW,295,2.0,-999.0,81,-99.99,,,0.00,,2013-03-03 13:11:00,
2013-03-03 07:21:00,29.0,24.0,30.19,WNW,302,4.0,-999.0,81,-99.99,,,0.00,,2013-03-03 13:21:00,
2013-03-03 07:32:00,29.0,24.0,30.19,WNW,302,4.0,-999.0,81,-99.99,,,0.00,,2013-03-03 13:32:00,
2013-03-03 07:42:00,29.0,24.0,30.19,WNW,302,4.0,-999.0,81,-99.99,,,0.00,,2013-03-03 13:42:00,
2013-03-03 07:51:00,30.0,23.0,30.19,WNW,293,5.0,-999.0,76,-99.99,,,0.00,,2013-03-03 13:51:00,
2013-03-03 08:02:00,31.0,23.0,30.21,NW,309,6.0,-999.0,73,-99.99,,,0.00,,2013-03-03 14:02:00,
2013-03-03 08:11:00,31.0,23.0,30.21,NW,309,6.0,-999.0,73,-99.99,,,0.00,,2013-03-03 14:11:00,
2013-03-03 08:21:00,31.0,23.0,30.21,NW,309,6.0,-999.0,73,-99.99,,,0.00,,2013-03-03 14:21:00,
2013-03-03 08:32:00,32.0,21.0,30.21,NW,316,8.0,-999.0,64,-99.99,,,0.00,,2013-03-03 14:32:00,
2013-03-03 08:42:00,32.0,21.0,30.21,NW,316,8.0,-999.0,64,-99.99,,,0.00,,2013-03-03 14:42:00,
2013-03-03 08:52:00,32.0,21.0,30.21,NW,326,8.0,-999.0,64,-99.99,,,0.00,,2013-03-03 14:52:00,
2013-03-03 09:01:00,33.0,22.0,30.21,NW,322,8.0,-999.0,63,-99.99,,,0.00,,2013-03-03 15:01:00,
2013-03-03 09:11:00,33.0,22.0,30.21,NW,322,8.0,-999.0,63,-99.99,,,0.00,,2013-03-03 15:11:00,
2013-03-03 09:22:00,33.0,21.0,30.21,NW,305,7.0,-999.0,62,-99.99,,,0.00,,2013-03-03 15:22:00,
2013-03-03 09:32:00,33.0,21.0,30.21,WNW,303,8.0,-999.0,62,-99.99,,,0.00,,2013-03-03 15:32:00,
2013-03-03 09:42:00,33.0,21.0,30.21,WNW,303,8.0,-999.0,62,-99.99,,,0.00,,2013-03-03 15:42:00,
2013-03-03 09:52:00,33.0,21.0,30.20,WNW,296,9.0,-999.0,60,-99.99,,,0.00,,2013-03-03 15:52:00,
2013-03-03 10:01:00,35.0,22.0,30.20,West,274,5.0,-999.0,59,-99.99,,,0.00,,2013-03-03 16:01:00,
2013-03-03 10:12:00,35.0,22.0,30.20,West,274,5.0,-999.0,59,-99.99,,,0.00,,2013-03-03 16:12:00,
2013-03-03 10:21:00,35.0,21.0,30.20,WNW,299,7.0,-999.0,56,-99.99,,,0.00,,2013-03-03 16:21:00,
2013-03-03 10:32:00,35.0,20.0,30.20,WNW,295,6.0,-999.0,55,-99.99,,,0.00,,2013-03-03 16:32:00,
2013-03-03 10:42:00,35.0,20.0,30.20,WNW,295,6.0,-999.0,55,-99.99,,,0.00,,2013-03-03 16:42:00,
2013-03-03 10:52:00,36.0,21.0,30.20,WNW,294,5.0,-999.0,54,-99.99,,,0.00,,2013-03-03 16:52:00,
2013-03-03 11:01:00,36.0,21.0,30.20,WNW,289,7.0,-999.0,54,-99.99,,,0.00,,2013-03-03 17:01:00,
2013-03-03 11:11:00,37.0,22.0,30.20,North,349,6.0,-999.0,54,-99.99,,,0.00,,2013-03-03 17:11:00,
2013-03-03 11:22:00,37.0,22.0,30.20,North,349,6.0,-999.0,54,-99.99,,,0.00,,2013-03-03 17:22:00,
2013-03-03 11:32:00,37.0,22.0,30.19,WNW,295,6.0,-999.0,54,-99.99,,,0.00,,2013-03-03 17:32:00,
2013-03-03 11:42:00,37.0,22.0,30.19,WNW,295,6.0,-999.0,54,-99.99,,,0.00,,2013-03-03 17:42:00,
2013-03-03 11:52:00,38.0,22.0,30.19,North,354,6.0,-999.0,51,-99.99,,,0.00,,2013-03-03 17:52:00,
2013-03-03 12:01:00,38.0,22.0,30.18,WSW,247,7.0,-999.0,52,-99.99,,,0.00,,2013-03-03 18:01:00,
2013-03-03 12:11:00,38.0,22.0,30.18,WSW,247,7.0,-999.0,52,-99.99,,,0.00,,2013-03-03 18:11:00,
2013-03-03 12:21:00,39.0,22.0,30.18,NW,320,9.0,-999.0,50,-99.99,,,0.00,,2013-03-03 18:21:00,
2013-03-03 12:32:00,39.0,19.0,30.17,WNW,283,9.0,-999.0,45,-99.99,,,0.00,,2013-03-03 18:32:00,
2013-03-03 12:42:00,39.0,19.0,30.17,WNW,283,9.0,-999.0,45,-99.99,,,0.00,,2013-03-03 18:42:00,
2013-03-03 12:52:00,40.0,20.0,30.17,WNW,299,8.0,-999.0,45,-99.99,,,0.00,,2013-03-03 18:52:00,
2013-03-03 13:01:00,40.0,21.0,30.16,NW,322,8.0,-999.0,46,-99.99,,,0.00,,2013-03-03 19:01:00,
2013-03-03 13:11:00,40.0,21.0,30.16,NW,322,8.0,-999.0,46,-99.99,,,0.00,,2013-03-03 19:11:00,
2013-03-03 13:21:00,41.0,22.0,30.15,NW,322,9.0,-999.0,46,-99.99,,,0.00,,2013-03-03 19:21:00,
2013-03-03 13:32:00,42.0,22.0,30.14,NNW,344,7.0,-999.0,44,-99.99,,,0.00,,2013-03-03 19:32:00,
2013-03-03 13:42:00,42.0,22.0,30.14,NNW,344,7.0,-999.0,44,-99.99,,,0.00,,2013-03-03 19:42:00,
2013-03-03 13:52:00,42.0,22.0,30.14,NNW,344,7.0,-999.0,44,-99.99,,,0.00,,2013-03-03 19:52:00,
2013-03-03 14:01:00,43.0,22.0,30.14,North,8,5.0,-999.0,42,-99.99,,,0.00,,2013-03-03 20:01:00,
2013-03-03 14:11:00,43.0,22.0,30.14,North,8,5.0,-999.0,42,-99.99,,,0.00,,2013-03-03 20:11:00,
2013-03-03 14:21:00,43.0,22.0,30.14,North,11,6.0,-999.0,42,-99.99,,,0.00,,2013-03-03 20:21:00,
2013-03-03 14:32:00,43.0,20.0,30.13,NNW,337,8.0,-999.0,39,-99.99,,,0.00,,2013-03-03 20:32:00,
2013-03-03 14:42:00,43.0,20.0,30.13,NNW,337,8.0,-999.0,39,-99.99,,,0.00,,2013-03-03 20:42:00,
2013-03-03 14:52:00,44.0,19.0,30.13,West,272,6.0,-999.0,37,-99.99,,,0.00,,2013-03-03 20:52:00,
2013-03-03 15:02:00,44.0,20.0,30.14,WNW,297,7.0,-999.0,38,-99.99,,,0.00,,2013-03-03 21:02:00,
2013-03-03 15:11:00,44.0,20.0,30.14,WNW,297,7.0,-999.0,38,-99.99,,,0.00,,2013-03-03 21:11:00,
2013-03-03 15:22:00,45.0,20.0,30.14,West,272,6.0,-999.0,36,-99.99,,,0.00,,2013-03-03 21:22:00,
2013-03-03 15:32:00,44.0,19.0,30.13,NW,316,7.0,-999.0,36,-99.99,,,0.00,,2013-03-03 21:32:00,
2013-03-03 15:42:00,44.0,19.0,30.13,NW,316,7.0,-999.0,36,-99.99,,,0.00,,2013-03-03 21:42:00,
2013-03-03 15:52:00,45.0,20.0,30.12,WNW,301,7.0,-999.0,36,-99.99,,,0.00,,2013-03-03 21:52:00,
2013-03-03 16:01:00,45.0,19.0,30.12,WNW,302,6.0,-999.0,35,-99.99,,,0.00,,2013-03-03 22:01:00,
2013-03-03 16:11:00,45.0,19.0,30.12,WNW,302,6.0,-999.0,35,-99.99,,,0.00,,2013-03-03 22:11:00,
2013-03-03 16:22:00,44.0,18.0,30.12,WNW,284,6.0,-999.0,35,-99.99,,,0.00,,2013-03-03 22:22:00,
2013-03-03 16:32:00,45.0,19.0,30.12,NNW,330,7.0,-999.0,35,-99.99,,,0.00,,2013-03-03 22:32:00,
2013-03-03 16:42:00,45.0,19.0,30.12,NNW,330,7.0,-999.0,35,-99.99,,,0.00,,2013-03-03 22:42:00,
2013-03-03 16:52:00,45.0,18.0,30.12,WNW,301,5.0,-999.0,33,-99.99,,,0.00,,2013-03-03 22:52:00,
2013-03-03 17:01:00,45.0,18.0,30.12,NW,312,6.0,-999.0,34,-99.99,,,0.00,,2013-03-03 23:01:00,
2013-03-03 17:11:00,45.0,18.0,30.12,NW,312,6.0,-999.0,34,-99.99,,,0.00,,2013-03-03 23:11:00,
2013-03-03 17:21:00,44.0,17.0,30.11,NW,305,4.0,-999.0,34,-99.99,,,0.00,,2013-03-03 23:21:00,
2013-03-03 17:32:00,44.0,18.0,30.11,NW,307,3.0,-999.0,35,-99.99,,,0.00,,2013-03-03 23:32:00,
2013-03-03 17:42:00,44.0,18.0,30.11,NW,307,3.0,-999.0,35,-99.99,,,0.00,,2013-03-03 23:42:00,
2013-03-03 17:52:00,43.0,18.0,30.11,NW,307,2.0,-999.0,36,-99.99,,,0.00,,2013-03-03 23:52:00,
2013-03-03 18:01:00,42.0,22.0,30.11,NW,307,0.0,-999.0,45,-99.99,,,0.00,,2013-03-04 00:01:00,
2013-03-03 18:11:00,42.0,22.0,30.11,NW,307,0.0,-999.0,45,-99.99,,,0.00,,2013-03-04 00:11:00,
2013-03-03 18:21:00,40.0,25.0,30.11,NW,307,0.0,-999.0,55,-99.99,,,0.00,,2013-03-04 00:21:00,
2013-03-03 18:32:00,38.0,25.0,30.11,NW,307,0.0,-999.0,60,-99.99,,,0.00,,2013-03-04 00:32:00,
2013-03-03 18:42:00,38.0,25.0,30.11,NW,307,0.0,-999.0,60,-99.99,,,0.00,,2013-03-04 00:42:00,
2013-03-03 18:52:00,35.0,23.0,30.12,NW,307,0.0,-999.0,62,-99.99,,,0.00,,2013-03-04 00:52:00,
2013-03-03 19:01:00,34.0,23.0,30.13,NW,307,0.0,-999.0,64,-99.99,,,0.00,,2013-03-04 01:01:00,
2013-03-03 19:11:00,34.0,23.0,30.13,NW,307,0.0,-999.0,64,-99.99,,,0.00,,2013-03-04 01:11:00,
2013-03-03 19:21:00,34.0,25.0,30.14,NW,307,0.0,-999.0,69,-99.99,,,0.00,,2013-03-04 01:21:00,
2013-03-03 19:32:00,33.0,25.0,30.14,NW,307,0.0,-999.0,72,-99.99,,,0.00,,2013-03-04 01:32:00,
2013-03-03 19:42:00,33.0,25.0,30.14,NW,307,0.0,-999.0,72,-99.99,,,0.00,,2013-03-04 01:42:00,
2013-03-03 19:52:00,33.0,26.0,30.14,NW,307,0.0,-999.0,74,-99.99,,,0.00,,2013-03-04 01:52:00,
2013-03-03 20:01:00,32.0,25.0,30.14,NW,307,0.0,-999.0,74,-99.99,,,0.00,,2013-03-04 02:01:00,
2013-03-03 20:11:00,32.0,25.0,30.14,NW,307,0.0,-999.0,74,-99.99,,,0.00,,2013-03-04 02:11:00,
2013-03-03 20:22:00,31.0,25.0,30.14,NW,307,0.0,-999.0,77,-99.99,,,0.00,,2013-03-04 02:22:00,
2013-03-03 20:32:00,31.0,25.0,30.14,NW,307,0.0,-999.0,78,-99.99,,,0.00,,2013-03-04 02:32:00,
2013-03-03 20:42:00,31.0,25.0,30.14,NW,307,0.0,-999.0,78,-99.99,,,0.00,,2013-03-04 02:42:00,
2013-03-03 20:52:00,30.0,24.0,30.14,NW,307,0.0,-999.0,78,-99.99,,,0.00,,2013-03-04 02:52:00,
2013-03-03 21:01:00,30.0,25.0,30.13,NW,307,0.0,-999.0,80,-99.99,,,0.00,,2013-03-04 03:01:00,
2013-03-03 21:11:00,30.0,25.0,30.13,NW,307,0.0,-999.0,80,-99.99,,,0.00,,2013-03-04 03:11:00,
2013-03-03 21:21:00,29.0,23.0,30.14,NW,307,0.0,-999.0,79,-99.99,,,0.00,,2013-03-04 03:21:00,
2013-03-03 21:32:00,29.0,24.0,30.14,NW,307,0.0,-999.0,80,-99.99,,,0.00,,2013-03-04 03:32:00,
2013-03-03 21:42:00,29.0,24.0,30.14,NW,307,0.0,-999.0,82,-99.99,,,0.00,,2013-03-04 03:42:00,
2013-03-03 21:52:00,29.0,24.0,30.14,NW,307,0.0,-999.0,82,-99.99,,,0.00,,2013-03-04 03:52:00,
2013-03-03 22:01:00,30.0,25.0,30.14,NW,307,1.0,-999.0,80,-99.99,,,0.00,,2013-03-04 04:01:00,
2013-03-03 22:11:00,30.0,25.0,30.14,NW,307,1.0,-999.0,80,-99.99,,,0.00,,2013-03-04 04:11:00,
2013-03-03 22:22:00,29.0,23.0,30.14,NW,307,0.0,-999.0,79,-99.99,,,0.00,,2013-03-04 04:22:00,
2013-03-03 22:32:00,29.0,24.0,30.14,NW,307,0.0,-999.0,82,-99.99,,,0.00,,2013-03-04 04:32:00,
2013-03-03 22:42:00,29.0,24.0,30.14,NW,307,0.0,-999.0,82,-99.99,,,0.00,,2013-03-04 04:42:00,
2013-03-03 22:51:00,29.0,23.0,30.15,NW,307,0.0,-999.0,79,-99.99,,,0.00,,2013-03-04 04:51:00,
2013-03-03 23:01:00,28.0,23.0,30.15,NW,307,0.0,-999.0,81,-99.99,,,0.00,,2013-03-04 05:01:00,
2013-03-03 23:11:00,28.0,23.0,30.15,NW,307,0.0,-999.0,81,-99.99,,,0.00,,2013-03-04 05:11:00,
2013-03-03 23:22:00,28.0,23.0,30.15,NW,307,0.0,-999.0,81,-99.99,,,0.00,,2013-03-04 05:22:00,
2013-03-03 23:31:00,29.0,25.0,30.14,NW,307,0.0,-999.0,83,-99.99,,,0.00,,2013-03-04 05:31:00,
2013-03-03 23:42:00,29.0,25.0,30.14,NW,307,0.0,-999.0,83,-99.99,,,0.00,,2013-03-04 05:42:00,
2013-03-03 23:52:00,28.0,23.0,30.14,NW,307,0.0,-999.0,80,-99.99,,,0.00,,2013-03-04 05:52:00,